[[{"header":{"parameterUnit":"m.s-1","parameterCategory":1,"la1":30.2991,"la2":30.254,"lo1":-89.0895,"lo2":-89.0444,"dy":0.0017,"dx":0.0017,"nx":28,"ny":28,"refTime":"2025-07-07T21:00:00:Z","depth":0,"parameterNumber":2,"parameterNumberName":"U-component_of_WINDS"},"data":[0,0,0,0,0,0,0,0,0,0,0,0,0,0,0,0,0,0,0,0,0,0,0,0,0,0,0,0,0,0,0,0,0,0,0,0,0,0,0,0,0,0,0,0,0,0,0,0,0,0,0,0,0,0,0,0,0,0,3.2457,3.2458,0,3.2514,3.2514,3.2515,3.2498,3.2497,3.2496,3.2494,3.2558,3.256,3.2563,0,0,0,0,0,0,0,0,0,0,0,0,0,3.2339,3.2342,3.2457,3.2458,3.2458,3.2514,3.2515,3.2515,3.2498,3.2497,3.2495,3.2494,3.2557,3.256,3.2563,0,0,0,0,0,0,0,0,0,0,0,0,0,3.2393,3.2342,3.2457,3.2456,3.2457,3.2514,3.2515,3.2516,3.2499,3.2497,3.2495,3.2493,3.2556,3.256,3.2564,3.2626,0,0,3.2577,3.2578,0,0,0,0,0,0,0,0,3.239,3.2397,3.2456,3.2457,3.2457,3.2497,3.2496,3.2553,3.2499,3.2483,3.2494,3.2492,3.2539,3.2545,3.2559,3.2629,3.2631,3.2577,3.258,3.2581,3.2583,0,0,0,0,0,0,0,3.2386,3.2395,3.248,3.2457,3.2458,3.2455,3.2461,3.2507,3.2521,3.2484,3.2483,3.249,3.2539,3.2555,3.2561,3.2632,3.2577,3.2581,3.2583,3.2585,3.2758,3.276,0,0,0,0,0,0,3.2381,3.2392,3.2478,3.2481,3.2418,3.2459,3.2465,3.2486,3.252,3.2523,3.2491,3.2489,3.2549,3.2556,3.2563,3.2639,3.2581,3.2585,3.2588,3.2756,3.2758,3.276,0,0,0,0,0,0,3.2379,3.2389,3.2476,3.2436,3.2447,3.2463,3.2487,3.2488,3.2504,3.2525,3.2528,3.2505,3.2548,3.2557,3.261,3.2641,3.2587,3.2591,3.2753,3.2756,3.2759,3.2791,0,0,0,0,0,0,3.2376,3.2388,3.2411,3.2437,3.2449,3.252,3.2488,3.2491,3.2511,3.2508,3.2539,3.2542,3.2547,3.2604,3.2615,3.2646,3.2594,3.2751,3.2755,3.2758,3.2787,3.2795,3.2801,0,0,0,0,0,3.2371,3.2418,3.2412,3.2422,3.2477,3.2522,3.2529,3.2533,3.2513,3.2537,3.2551,3.2541,3.2636,3.261,3.2621,3.2654,3.2749,3.2753,3.2758,3.2784,3.2793,3.2801,0,0,0,0,0,0,3.2396,3.2421,3.2415,3.2471,3.2494,3.2519,3.2549,3.2542,3.2573,3.2569,3.2574,3.2581,3.2636,3.265,3.2621,3.2717,3.269,3.2697,3.2705,3.2714,3.2721,3.2717,3.2598,0,0,0,0,0,3.2408,3.2441,3.2462,3.2509,3.2521,3.2533,3.2553,3.2553,3.2579,3.2589,3.2607,3.2633,3.2669,3.2692,3.2726,3.2789,3.2797,3.2818,3.2824,3.283,3.2837,3.2873,3.2883,3.2776,3.2776,3.2776,0,0,3.2433,3.2451,3.2472,3.2515,3.2533,3.2569,3.2542,3.258,3.2607,3.2595,3.2647,3.2661,3.2691,3.2749,3.2776,3.2763,3.2868,3.2836,3.284,3.2844,3.2878,3.2889,3.2898,3.2779,3.2778,3.2778,0,0,3.2497,3.2513,3.2555,3.2574,3.2602,3.2609,3.262,3.2646,3.2654,3.2705,3.2697,3.2731,3.2792,3.2814,3.2833,3.2907,3.29,3.2918,3.2955,3.299,3.2998,3.3006,3.3034,3.3043,3.2924,3.2924,3.2924,0,3.2526,3.2577,3.2578,3.2618,3.2638,3.2627,3.2671,3.269,3.2728,3.2743,3.2727,3.2804,3.2824,3.2888,3.2906,3.2922,3.2935,3.2915,3.2996,3.3004,3.3011,3.3038,3.3048,3.2926,3.2926,3.2926,3.2926,0,3.2612,3.2648,3.2679,3.2714,3.2738,3.2779,3.2789,3.2813,3.2812,3.2822,3.2875,3.2898,3.2937,3.2952,3.2952,3.3018,3.3009,3.2995,3.2968,3.3023,3.3049,3.3059,3.2929,3.2929,3.2928,3.2928,0,0,3.2693,3.2729,3.274,3.2757,3.2787,3.2816,3.2858,3.2895,3.2916,3.2943,3.298,3.3032,3.302,3.3042,3.3044,3.3075,3.3134,3.3057,3.3058,3.3072,3.3209,3.322,3.3232,3.3129,3.3131,3.3132,3.3207,0,3.2761,3.2832,3.2835,3.2902,3.2936,3.2927,3.2964,3.2988,3.2999,3.3031,3.3044,3.3081,3.3061,3.3075,3.3105,3.312,3.3161,3.3115,3.3165,3.3167,3.3158,3.3245,3.3256,3.3325,3.3217,3.3218,3.322,0,3.2849,3.2878,3.2947,3.2973,3.2988,3.3021,3.3056,3.3086,3.3114,3.312,3.3144,3.3142,3.3188,3.3158,3.3222,3.319,3.3211,3.3222,3.3225,3.323,3.3197,3.3254,3.3347,3.3358,3.3235,3.3234,3.3233,0,3.2903,3.2959,3.3008,3.3023,3.3054,3.3078,3.3093,3.3118,3.314,3.3171,3.3186,3.3223,3.3243,3.3272,3.3281,3.3258,3.3345,3.3316,3.3353,3.3353,3.3372,3.3371,3.3472,3.3384,3.3384,3.3384,3.3383,0,3.2979,3.3023,3.3033,3.3064,3.3113,3.3116,3.3165,3.3179,3.3201,3.3236,3.3231,3.3263,3.3272,3.3308,3.3315,3.3368,3.3377,3.3384,3.3386,3.3385,3.3384,3.34,3.3395,3.3386,3.3386,3.3385,3.3385,0,3.3048,3.3057,3.311,3.3135,3.3143,3.3178,3.3201,3.3231,3.3241,3.3285,3.3296,3.3312,3.3353,3.3365,3.3414,3.3419,3.3482,3.3478,3.3472,3.3472,3.3509,3.3506,3.3624,3.364,3.3541,3.3542,3.3542,0,3.3097,3.313,3.3158,3.318,3.3195,3.3231,3.3253,3.3259,3.3283,3.3317,3.3344,3.3384,3.3416,3.3483,3.3501,3.3539,3.3538,3.3576,3.3544,3.3542,3.354,3.3538,3.3542,3.3583,3.3584,3.3585,3.3586,0,3.3182,3.3185,3.3217,3.3251,3.3277,3.3305,3.3331,3.335,3.3359,3.3387,3.3428,3.3453,3.3503,3.3544,3.3583,3.36,3.3596,3.3596,3.3606,3.3607,3.3602,3.3606,3.349,3.3593,3.3592,3.3592,3.3591,3.3591,3.3243,3.3273,3.3298,3.3334,3.3354,3.3379,3.3409,3.3422,3.3456,3.3496,3.3498,3.3543,3.3572,3.3623,3.3642,3.3679,3.3668,3.3683,3.3688,3.3692,3.3695,3.3595,3.3686,3.3686,3.3686,3.3686,3.3686,0,3.333,3.3345,3.3378,3.3415,3.3444,3.3435,3.3464,3.3489,3.3528,3.3554,3.3586,3.3634,3.3674,3.3695,3.3735,3.376,3.3759,3.3771,3.377,3.3774,3.3702,3.3689,3.3771,3.3771,3.3771,3.3771,3.3771,3.3771,3.3378,3.3428,3.3434,3.3494,3.351,3.3553,3.357,3.3594,3.3615,3.3668,3.3701,3.3713,3.3738,3.378,3.3816,3.3822,3.3837,3.3851,3.3855,3.3788,3.3779,3.3771,3.3759,3.3854,3.3854,3.3924,3.3924,3.3925]},{"header":{"parameterUnit":"m.s-1","parameterCategory":1,"la1":30.2991,"la2":30.254,"lo1":-89.0895,"lo2":-89.0444,"dy":0.0017,"dx":0.0017,"nx":28,"ny":28,"refTime":"2025-07-07T21:00:00:Z","depth":0,"parameterNumber":3,"parameterNumberName":"V-component_of_WINDS"},"data":[0,0,0,0,0,0,0,0,0,0,0,0,0,0,0,0,0,0,0,0,0,0,0,0,0,0,0,0,0,0,0,0,0,0,0,0,0,0,0,0,0,0,0,0,0,0,0,0,0,0,0,0,0,0,0,0,0,0,1.4761,1.4761,0,1.4809,1.4809,1.481,1.4832,1.4832,1.4831,1.4831,1.4879,1.488,1.4881,0,0,0,0,0,0,0,0,0,0,0,0,0,1.4683,1.4685,1.4761,1.4761,1.4762,1.4809,1.4809,1.481,1.4832,1.4832,1.4831,1.4831,1.4878,1.488,1.4881,0,0,0,0,0,0,0,0,0,0,0,0,0,1.4723,1.4685,1.4761,1.4778,1.478,1.4809,1.4809,1.481,1.4832,1.4832,1.4831,1.4831,1.4878,1.488,1.4882,1.4895,0,0,1.4888,1.4889,0,0,0,0,0,0,0,0,1.472,1.4725,1.4775,1.4777,1.478,1.4814,1.48,1.4839,1.4832,1.4812,1.4831,1.4831,1.4857,1.4861,1.487,1.4898,1.49,1.4888,1.4889,1.489,1.489,0,0,0,0,0,0,0,1.4718,1.4723,1.478,1.4776,1.4779,1.4782,1.4788,1.4807,1.4834,1.4814,1.4816,1.4821,1.4858,1.4868,1.4871,1.49,1.4888,1.489,1.4891,1.4892,1.4937,1.4937,0,0,0,0,0,0,1.4712,1.4721,1.4778,1.4781,1.4749,1.4784,1.479,1.4803,1.4834,1.4839,1.4821,1.4822,1.4865,1.4869,1.4873,1.4888,1.489,1.4892,1.4893,1.4937,1.4937,1.4937,0,0,0,0,0,0,1.4711,1.4717,1.4776,1.4752,1.4759,1.4785,1.48,1.4804,1.4814,1.484,1.4844,1.4826,1.4865,1.487,1.4889,1.489,1.4893,1.4894,1.4937,1.4937,1.4937,1.4921,0,0,0,0,0,0,1.4708,1.4717,1.4724,1.4752,1.4761,1.4793,1.48,1.4805,1.4817,1.4819,1.4846,1.485,1.4865,1.4886,1.4891,1.4893,1.4896,1.4937,1.4937,1.4937,1.4921,1.492,1.492,0,0,0,0,0,1.4706,1.4718,1.4724,1.4731,1.477,1.4793,1.4798,1.4816,1.4818,1.4823,1.4839,1.4849,1.4889,1.4887,1.4893,1.4896,1.4937,1.4937,1.4937,1.4922,1.4921,1.492,0,0,0,0,0,0,1.469,1.4722,1.4729,1.4751,1.4769,1.4797,1.4805,1.4814,1.4832,1.4833,1.4853,1.4859,1.4875,1.4887,1.4885,1.4909,1.4914,1.4915,1.49,1.4899,1.4898,1.4895,1.4898,0,0,0,0,0,1.4689,1.4706,1.4732,1.4749,1.4757,1.4779,1.479,1.4802,1.4821,1.4829,1.4846,1.4864,1.488,1.489,1.4907,1.4923,1.4928,1.4928,1.4927,1.4926,1.4927,1.4933,1.4932,1.4937,1.4937,1.4937,0,0,1.4687,1.4706,1.4716,1.4746,1.4761,1.4777,1.4786,1.4803,1.4813,1.4831,1.4849,1.4862,1.4883,1.4899,1.4907,1.491,1.4926,1.4926,1.4925,1.4926,1.4933,1.4932,1.4932,1.4937,1.4937,1.4937,0,0,1.4691,1.4709,1.4723,1.4737,1.476,1.4774,1.4777,1.4802,1.4811,1.483,1.4842,1.4855,1.4883,1.4896,1.4907,1.4911,1.492,1.4916,1.4911,1.4916,1.4916,1.4916,1.4915,1.4915,1.4916,1.4916,1.4916,0,1.4686,1.4711,1.4729,1.4744,1.4755,1.4771,1.4784,1.4797,1.4823,1.483,1.4833,1.4866,1.4882,1.49,1.49,1.4909,1.4911,1.4913,1.4915,1.4915,1.4915,1.4914,1.4914,1.4916,1.4916,1.4916,1.4916,0,1.4702,1.4718,1.4727,1.4751,1.4763,1.4777,1.4795,1.4805,1.4814,1.4827,1.4843,1.4862,1.4881,1.4886,1.4896,1.4904,1.4905,1.4911,1.4916,1.4913,1.4913,1.4913,1.4915,1.4915,1.4915,1.4915,0,0,1.47,1.4731,1.4734,1.4744,1.4768,1.478,1.4793,1.4811,1.4818,1.4835,1.4845,1.4866,1.4871,1.4883,1.4894,1.4899,1.4897,1.4904,1.4904,1.49,1.4904,1.4899,1.4899,1.4903,1.4903,1.4903,1.4902,0,1.4706,1.4731,1.4746,1.4764,1.4777,1.479,1.4801,1.4816,1.4827,1.4839,1.4851,1.4865,1.4871,1.4878,1.4883,1.4896,1.4898,1.4897,1.4911,1.4911,1.4904,1.4899,1.4894,1.4892,1.4902,1.4902,1.4902,0,1.4718,1.4733,1.4752,1.4771,1.4777,1.4787,1.4803,1.4814,1.483,1.4838,1.4849,1.4859,1.4871,1.4874,1.4889,1.4888,1.4894,1.49,1.4901,1.4902,1.4906,1.4899,1.4892,1.4891,1.4903,1.4903,1.4903,0,1.4712,1.4737,1.4751,1.4759,1.4782,1.4788,1.4797,1.4813,1.4822,1.4835,1.484,1.4855,1.4863,1.4873,1.4886,1.4888,1.4898,1.4904,1.4903,1.4903,1.4905,1.4905,1.4898,1.4911,1.4911,1.4911,1.4911,0,1.4717,1.4728,1.4748,1.4756,1.4767,1.4782,1.4793,1.4803,1.4816,1.4825,1.4838,1.4846,1.4863,1.4872,1.4882,1.4891,1.4895,1.49,1.4903,1.4899,1.4898,1.4903,1.4903,1.4911,1.4911,1.4911,1.4911,0,1.4713,1.4727,1.4742,1.4762,1.4766,1.4773,1.479,1.4797,1.4807,1.4819,1.4822,1.4838,1.485,1.4864,1.488,1.4886,1.4894,1.4898,1.4889,1.489,1.4888,1.4887,1.4884,1.4883,1.4897,1.4897,1.4897,0,1.4715,1.4723,1.4742,1.4749,1.4758,1.4769,1.4777,1.4791,1.4799,1.4815,1.482,1.4832,1.4843,1.486,1.4872,1.4884,1.4888,1.4885,1.489,1.4884,1.4885,1.4884,1.4884,1.4884,1.4884,1.4884,1.4884,0,1.4716,1.4721,1.4733,1.4746,1.4755,1.4766,1.4777,1.4782,1.4798,1.4806,1.4817,1.4825,1.484,1.4851,1.4863,1.4872,1.488,1.4882,1.4882,1.4878,1.4871,1.4873,1.4884,1.4882,1.4883,1.4883,1.4883,1.4883,1.4714,1.472,1.4733,1.4745,1.4754,1.4764,1.4771,1.4781,1.4791,1.4804,1.4811,1.4822,1.4834,1.4851,1.4859,1.4866,1.4869,1.487,1.487,1.4869,1.4867,1.487,1.4868,1.4868,1.4869,1.4869,1.4869,0,1.4714,1.4722,1.4732,1.4747,1.4755,1.4761,1.4773,1.4779,1.4788,1.4798,1.4807,1.4819,1.4828,1.4841,1.4851,1.4854,1.4857,1.4856,1.4855,1.4857,1.4865,1.4863,1.4853,1.4853,1.4853,1.4853,1.4853,1.4853,1.4715,1.4725,1.4731,1.4745,1.4753,1.4763,1.4769,1.4776,1.4785,1.4796,1.4804,1.4812,1.4822,1.4833,1.4841,1.4844,1.4846,1.4844,1.4848,1.4855,1.4856,1.4858,1.4856,1.4844,1.4844,1.4838,1.4838,1.4838]}]]